Weather History for Corpus Christi NAS, TX

Change the Weather History Date:

Tuesday, September 24, 2013

  Actual Average Record
Temperature  
Mean Temperature 83 °F -  
Max Temperature 93 °F 85 °F 104 °F (2005)
Min Temperature 75 °F 70 °F 60 °F (1999)
Cooling Degree Days 18    
Growing Degree Days 33 (Base 50)    
Moisture  
Dew Point 72 °F    
Average Humidity 75    
Maximum Humidity 97    
Minimum Humidity 44    
Precipitation  
Precipitation 0.00 in - - ()
Sea Level Pressure  
Sea Level Pressure 29.83 in    
Wind  
Wind Speed 7 mph (West)    
Max Wind Speed 12 mph    
Max Gust Speed -    
Visibility 10 miles    
Events      
Averages and records for this station are not official NWS values.
T = Trace of Precipitation, MM = Missing Value Source: NWS Daily Summary

Daily Weather History Graph

Daily Weather History Graph

Search for Another Location

Airport:

Trip Planner

Search our weather history database for the weather conditions in past years. The results will help you decide how hot, cold, wet, or windy it might be!

Date:

Astronomy

Sep. 24, 2013 Rise Set
Actual Time 7:18 AM CDT 7:22 PM CDT
Civil Twilight 6:55 AM CDT 7:46 PM CDT
Nautical Twilight 6:28 AM CDT 8:13 PM CDT
Astronomical Twilight 6:00 AM CDT 8:40 PM CDT
Moon 11:07 PM CDT (9/24) 12:08 PM CDT (9/24)
Length of Visible Light 12h 50m
Length of Day
12h 04m
Waning Gibbous, 73% of the Moon is Illuminated
Sep 24
Waning Gibbous
Sep 26
Last Quarter
Oct 4
New
Oct 11
First Quarter
Oct 18
Full

Hourly Weather History & Observations

Time (CDT) Temp. Heat Index Dew Point Humidity Pressure Visibility Wind Dir Wind Speed Gust Speed Precip Events Conditions
12:56 AM 77.0 °F - 75.9 °F 96% 29.80 in 10.0 mi West 4.6 mph - N/A   Clear
1:56 AM 75.9 °F - 75.0 °F 97% 29.80 in 10.0 mi WSW 6.9 mph - N/A   Partly Cloudy
2:56 AM 75.9 °F - 73.9 °F 94% 29.79 in 10.0 mi West 6.9 mph - N/A   Clear
3:56 AM 75.0 °F - 73.9 °F 96% 29.79 in 10.0 mi West 6.9 mph - N/A   Clear
4:56 AM 75.9 °F - 73.0 °F 91% 29.80 in 10.0 mi WNW 9.2 mph - N/A   Clear
5:56 AM 75.9 °F - 73.0 °F 91% 29.81 in 10.0 mi NW 8.1 mph - N/A   Clear
6:56 AM 75.0 °F - 72.0 °F 90% 29.83 in 10.0 mi WNW 6.9 mph - N/A   Partly Cloudy
7:56 AM 75.9 °F - 72.0 °F 87% 29.85 in 10.0 mi WNW 6.9 mph - N/A   Partly Cloudy
8:56 AM 77.0 °F - 72.0 °F 84% 29.87 in 10.0 mi WSW 8.1 mph - N/A   Partly Cloudy
9:56 AM 81.0 °F 84.4 °F 70.0 °F 69% 29.88 in 10.0 mi West 10.4 mph - N/A   Partly Cloudy
10:56 AM 84.9 °F 88.8 °F 69.1 °F 59% 29.88 in 10.0 mi NNW 9.2 mph - N/A   Partly Cloudy
11:56 AM 87.1 °F 92.8 °F 71.1 °F 59% 29.88 in 10.0 mi NNW 11.5 mph - N/A   Partly Cloudy
12:56 PM 88.0 °F 93.8 °F 71.1 °F 57% 29.87 in 10.0 mi NW 10.4 mph - N/A   Partly Cloudy
1:56 PM 90.0 °F 96.9 °F 72.0 °F 55% 29.84 in 10.0 mi NW 10.4 mph - N/A   Partly Cloudy
2:56 PM 91.0 °F 97.6 °F 71.1 °F 52% 29.83 in 10.0 mi WNW 8.1 mph - N/A   Partly Cloudy
3:56 PM 91.9 °F 97.4 °F 70.0 °F 48% 29.81 in 10.0 mi NW 8.1 mph - N/A   Partly Cloudy
4:56 PM 91.9 °F 95.9 °F 68.0 °F 45% 29.79 in 10.0 mi NW 8.1 mph - N/A   Partly Cloudy
5:56 PM 91.9 °F 95.4 °F 66.9 °F 44% 29.79 in 10.0 mi Calm Calm - N/A   Partly Cloudy
6:56 PM 89.1 °F 92.9 °F 68.0 °F 50% 29.80 in 10.0 mi East 4.6 mph - N/A   Partly Cloudy
7:56 PM 82.0 °F 86.3 °F 71.1 °F 69% 29.81 in 10.0 mi SSE 5.8 mph - N/A   Partly Cloudy
8:56 PM 81.0 °F 87.9 °F 77.0 °F 88% 29.82 in 10.0 mi South 3.5 mph - N/A   Clear
9:56 PM 78.1 °F - 75.9 °F 93% 29.84 in 10.0 mi South 4.6 mph - N/A   Clear
10:56 PM 79.0 °F - 77.0 °F 94% 29.85 in 10.0 mi South 5.8 mph - N/A   Clear
11:56 PM 79.0 °F - 78.1 °F 97% 29.84 in 10.0 mi SSW 6.9 mph - N/A   Clear